• en Suisse
  • Liste des pays
  • À 7 jours
  • Température de l'eau
  • Carte satellitaire
  • Carte météo
  • Widgets météo
  • user-avatar
    Se connecter

    Météo par heure à Serdehivka

    Ce jour, 18 Juillet, Mercredi

    Heure Température Précipitation Vent Pression Humidité
    00:00 +18°C° 0 mm 2 m/s 733 mmHg 92%
    01:00 +18°C° 0 mm 2 m/s 733 mmHg 93%
    02:00 +17°C° 0 mm 3 m/s 733 mmHg 94%
    03:00 +17°C° 0 mm 3 m/s 733 mmHg 94%
    04:00 +17°C° 0 mm 2 m/s 733 mmHg 94%
    05:00 +17°C° 0 mm 2 m/s 733 mmHg 94%
    06:00 +18°C° 0 mm 2 m/s 733 mmHg 91%
    07:00 +20°C° 0 mm 2 m/s 733 mmHg 88%
    08:00 +21°C° 0 mm 2 m/s 733 mmHg 86%
    09:00 +21°C° 0,5 mm 2 m/s 733 mmHg 84%
    10:00 +21°C° 0,5 mm 2 m/s 733 mmHg 83%
    11:00 +22°C° 0,5 mm 3 m/s 733 mmHg 81%
    12:00 +23°C° 0,2 mm 2 m/s 733 mmHg 79%
    13:00 +23°C° 0,2 mm 2 m/s 733 mmHg 77%
    14:00 +24°C° 0,2 mm 2 m/s 733 mmHg 75%
    15:00 +24°C° 0 mm 2 m/s 733 mmHg 75%
    16:00 +24°C° 0 mm 2 m/s 733 mmHg 75%
    17:00 +24°C° 0 mm 2 m/s 733 mmHg 75%
    18:00 +23°C° 0 mm 2 m/s 733 mmHg 79%
    19:00 +21°C° 0 mm 2 m/s 733 mmHg 83%
    20:00 +21°C° 0 mm 1 m/s 733 mmHg 87%
    21:00 +20°C° 0,1 mm 1 m/s 733 mmHg 88%
    22:00 +19°C° 0,1 mm 2 m/s 733 mmHg 88%
    23:00 +19°C° 0,1 mm 2 m/s 733 mmHg 89%

    Demain, 19 Juillet, Jeudi

    Heure Température Précipitation Vent Pression Humidité
    00:00 +19°C° 0,1 mm 2 m/s 733 mmHg 90%
    01:00 +18°C° 0,1 mm 2 m/s 733 mmHg 91%
    02:00 +18°C° 0,1 mm 2 m/s 733 mmHg 92%
    03:00 +18°C° 0,1 mm 2 m/s 733 mmHg 93%
    04:00 +18°C° 0,1 mm 2 m/s 733 mmHg 93%
    05:00 +18°C° 0,1 mm 2 m/s 733 mmHg 94%
    06:00 +20°C° 0,1 mm 2 m/s 733 mmHg 90%
    07:00 +21°C° 0,1 mm 2 m/s 734 mmHg 87%
    08:00 +23°C° 0,1 mm 2 m/s 734 mmHg 83%
    09:00 +24°C° 0,9 mm 2 m/s 734 mmHg 79%
    10:00 +25°C° 0,9 mm 3 m/s 734 mmHg 75%
    11:00 +27°C° 0,9 mm 3 m/s 734 mmHg 71%
    12:00 +27°C° 0,7 mm 3 m/s 734 mmHg 68%
    13:00 +28°C° 0,7 mm 3 m/s 734 mmHg 66%
    14:00 +28°C° 0,7 mm 3 m/s 734 mmHg 63%
    15:00 +28°C° 0,2 mm 3 m/s 734 mmHg 64%
    16:00 +28°C° 0,2 mm 3 m/s 734 mmHg 65%
    17:00 +28°C° 0,2 mm 3 m/s 734 mmHg 66%
    18:00 +27°C° 0,4 mm 3 m/s 734 mmHg 72%
    19:00 +25°C° 0,4 mm 3 m/s 734 mmHg 78%
    20:00 +23°C° 0,4 mm 2 m/s 734 mmHg 84%
    21:00 +23°C° 0,2 mm 2 m/s 734 mmHg 86%
    22:00 +21°C° 0,2 mm 2 m/s 734 mmHg 89%
    23:00 +20°C° 0,2 mm 2 m/s 734 mmHg 91%

    Après-demain, 20 Juillet, Vendredi

    Heure Température Précipitation Vent Pression Humidité
    00:00 +20°C° 0 mm 2 m/s 734 mmHg 92%
    01:00 +20°C° 0 mm 2 m/s 734 mmHg 93%
    02:00 +19°C° 0 mm 2 m/s 734 mmHg 94%
    03:00 +19°C° 0,1 mm 2 m/s 734 mmHg 95%
    04:00 +19°C° 0,1 mm 2 m/s 734 mmHg 95%
    05:00 +19°C° 0,1 mm 2 m/s 734 mmHg 96%
    06:00 +20°C° 0 mm 3 m/s 735 mmHg 92%
    07:00 +21°C° 0 mm 3 m/s 735 mmHg 88%
    08:00 +24°C° 0 mm 3 m/s 735 mmHg 84%
    09:00 +25°C° 0,2 mm 3 m/s 735 mmHg 78%
    10:00 +26°C° 0,2 mm 3 m/s 735 mmHg 73%
    11:00 +27°C° 0,2 mm 3 m/s 735 mmHg 67%
    12:00 +27°C° 0,5 mm 4 m/s 735 mmHg 67%
    13:00 +27°C° 0,5 mm 4 m/s 735 mmHg 67%
    14:00 +28°C° 0,5 mm 4 m/s 735 mmHg 67%
    15:00 +27°C° 0,3 mm 4 m/s 735 mmHg 68%
    16:00 +27°C° 0,3 mm 4 m/s 735 mmHg 69%
    17:00 +27°C° 0,3 mm 4 m/s 735 mmHg 71%
    18:00 +26°C° 0 mm 3 m/s 735 mmHg 76%
    19:00 +24°C° 0 mm 3 m/s 736 mmHg 82%
    20:00 +23°C° 0 mm 2 m/s 736 mmHg 87%
    21:00 +21°C° 0 mm 3 m/s 736 mmHg 89%
    22:00 +21°C° 0 mm 3 m/s 736 mmHg 91%
    23:00 +20°C° 0 mm 3 m/s 736 mmHg 94%

    21 Juillet, Samedi

    Heure Température Précipitation Vent Pression Humidité
    00:00 +20°C° 0 mm 3 m/s 736 mmHg 94%
    01:00 +19°C° 0 mm 3 m/s 736 mmHg 95%
    02:00 +19°C° 0 mm 3 m/s 736 mmHg 96%
    03:00 +19°C° 0 mm 3 m/s 736 mmHg 96%
    04:00 +19°C° 0 mm 3 m/s 736 mmHg 96%
    05:00 +19°C° 0 mm 3 m/s 736 mmHg 96%
    06:00 +20°C° 0 mm 3 m/s 737 mmHg 92%
    07:00 +21°C° 0 mm 3 m/s 737 mmHg 87%
    08:00 +23°C° 0 mm 4 m/s 737 mmHg 83%
    09:00 +25°C° 0,1 mm 3 m/s 737 mmHg 78%
    10:00 +26°C° 0,1 mm 3 m/s 737 mmHg 73%
    11:00 +27°C° 0,1 mm 3 m/s 737 mmHg 68%
    12:00 +27°C° 0,6 mm 4 m/s 737 mmHg 69%
    13:00 +27°C° 0,6 mm 4 m/s 737 mmHg 69%
    14:00 +28°C° 0,6 mm 5 m/s 737 mmHg 70%
    15:00 +27°C° 0,7 mm 5 m/s 737 mmHg 72%
    16:00 +27°C° 0,7 mm 5 m/s 737 mmHg 74%
    17:00 +26°C° 0,7 mm 5 m/s 737 mmHg 76%
    18:00 +25°C° 0 mm 4 m/s 737 mmHg 81%
    19:00 +22°C° 0 mm 3 m/s 737 mmHg 85%
    20:00 +21°C° 0 mm 2 m/s 738 mmHg 89%
    21:00 +21°C° 0 mm 2 m/s 738 mmHg 91%
    22:00 +20°C° 0 mm 2 m/s 738 mmHg 92%
    23:00 +20°C° 0 mm 2 m/s 738 mmHg 94%

    22 Juillet, Dimanche

    Heure Température Précipitation Vent Pression Humidité
    00:00 +20°C° 0 mm 2 m/s 738 mmHg 94%
    01:00 +19°C° 0 mm 2 m/s 738 mmHg 94%
    02:00 +19°C° 0 mm 2 m/s 738 mmHg 95%
    03:00 +19°C° 0 mm 2 m/s 738 mmHg 95%
    04:00 +19°C° 0 mm 2 m/s 738 mmHg 95%
    05:00 +19°C° 0 mm 2 m/s 738 mmHg 95%
    06:00 +20°C° 0 mm 2 m/s 738 mmHg 90%
    07:00 +23°C° 0 mm 2 m/s 738 mmHg 85%
    08:00 +24°C° 0 mm 3 m/s 738 mmHg 79%
    09:00 +25°C° 0,2 mm 3 m/s 738 mmHg 74%
    10:00 +27°C° 0,2 mm 3 m/s 738 mmHg 69%
    11:00 +28°C° 0,2 mm 3 m/s 738 mmHg 65%
    12:00 +28°C° 0,7 mm 3 m/s 737 mmHg 63%
    13:00 +28°C° 0,7 mm 3 m/s 737 mmHg 62%
    14:00 +28°C° 0,7 mm 3 m/s 737 mmHg 61%
    15:00 +28°C° 0,3 mm 2 m/s 737 mmHg 61%
    16:00 +28°C° 0,3 mm 2 m/s 737 mmHg 61%
    17:00 +28°C° 0,3 mm 2 m/s 737 mmHg 62%
    18:00 +27°C° 0,3 mm 2 m/s 737 mmHg 66%
    19:00 +25°C° 0,3 mm 1 m/s 737 mmHg 71%
    20:00 +24°C° 0,3 mm 1 m/s 737 mmHg 76%
    21:00 +23°C° 0 mm 2 m/s 737 mmHg 77%
    22:00 +21°C° 0 mm 2 m/s 737 mmHg 79%
    23:00 +21°C° 0 mm 2 m/s 737 mmHg 81%

    23 Juillet, Lundi

    Heure Température Précipitation Vent Pression Humidité
    00:00 +20°C° 0 mm 2 m/s 737 mmHg 82%
    01:00 +20°C° 0 mm 2 m/s 737 mmHg 83%
    02:00 +19°C° 0 mm 2 m/s 737 mmHg 84%
    03:00 +19°C° 0 mm 2 m/s 737 mmHg 85%
    04:00 +19°C° 0 mm 2 m/s 737 mmHg 86%
    05:00 +19°C° 0 mm 2 m/s 737 mmHg 87%
    06:00 +20°C° 0 mm 2 m/s 737 mmHg 82%
    07:00 +23°C° 0 mm 2 m/s 738 mmHg 77%
    08:00 +25°C° 0 mm 2 m/s 738 mmHg 73%
    09:00 +26°C° 0,1 mm 2 m/s 738 mmHg 67%
    10:00 +27°C° 0,1 mm 2 m/s 738 mmHg 62%
    11:00 +29°C° 0,1 mm 2 m/s 737 mmHg 57%
    12:00 +29°C° 0,5 mm 3 m/s 737 mmHg 56%
    13:00 +29°C° 0,5 mm 3 m/s 737 mmHg 56%
    14:00 +30°C° 0,5 mm 3 m/s 737 mmHg 55%
    15:00 +29°C° 0,3 mm 2 m/s 737 mmHg 56%
    16:00 +29°C° 0,3 mm 2 m/s 737 mmHg 57%
    17:00 +29°C° 0,3 mm 2 m/s 737 mmHg 58%
    18:00 +27°C° 0 mm 2 m/s 737 mmHg 63%
    19:00 +26°C° 0 mm 1 m/s 737 mmHg 68%
    20:00 +24°C° 0 mm 1 m/s 737 mmHg 72%
    21:00 +24°C° 0 mm 1 m/s 737 mmHg 75%
    22:00 +23°C° 0 mm 2 m/s 737 mmHg 78%
    23:00 +21°C° 0 mm 2 m/s 737 mmHg 81%
    Voir plus